Temp
-0 -1 -1 -1 -1 -2 -2 -3 -3 -4 -4 -4 -4 -4 -5 -5 -5 -5 -5 -5 -5 -5 -4 -4 -3 -3 -3
-0 -1 -1 -2 -3 -3 -5 -5 -5 -5 -6 -5 -5 -6 -6 -6 -5 -6 -6 -6 -5 -5 -5 -4 -4 -4 -4
-0 -1 -2 -4 -4 -5 -5 -6 -6 -7 -7 -7 -7 -7 -7 -6 -6 -6 -6 -6 -6 -6 -6 -5 -5 -5 -4
-2 -3 -4 -6 -7 -7 -7 -7 -8 -8 -8 -8 -8 -8 -8 -7 -7 -7 -7 -7 -7 -6 -6 -6 -6 -6 -5
-6 -6 -7 -7 -8 -9 -9 -9 -10 -9 -9 -9 -8 -8 -8 -8 -8 -8 -8 -7 -7 -7 -7 -7 -6 -6 -6
-8 -9 -9 -9 -9 -9 -11 -11 -10 -10 -9 -9 -9 -9 -9 -9 -8 -8 -8 -8 -8 -8 -8 -7 -7 -7 -7
-9 -9 -9 -9 -9 -10 -11 -12 -11 -10 -10 -9 -9 -9 -9 -9 -9 -9 -9 -8 -8 -8 -8 -8 -8 -8 -7
-10 -10 -10 -10 -11 -12 -13 -12 -12 -11 -10 -9 -10 -9 -9 -9 -10 -10 -9 -9 -9 -9 -9 -9 -8 -8 -8
-10 -10 -10 -11 -13 -14 -13 -12 -12 -11 -11 -10 -10 -10 -10 -10 -11 -11 -10 -10 -9 -9 -9 -9 -9 -9 -8
-11 -11 -12 -12 -14 -13 -12 -12 -12 -13 -12 -11 -11 -11 -10 -10 -11 -11 -11 -10 -10 -10 -10 -9 -9 -9 -9
-12 -12 -13 -14 -13 -12 -12 -12 -13 -13 -12 -12 -11 -11 -11 -11 -12 -11 -11 -11 -11 -10 -10 -10 -9 -9 -9
-12 -12 -13 -13 -13 -12 -13 -14 -13 -14 -13 -12 -12 -12 -12 -12 -12 -12 -12 -12 -11 -11 -10 -10 -10 -9 -9
-12 -13 -13 -13 -13 -12 -13 -14 -14 -14 -13 -13 -13 -13 -13 -13 -12 -13 -13 -12 -12 -11 -11 -10 -10 -9 -9
-12 -13 -13 -13 -14 -13 -13 -14 -14 -14 -14 -14 -13 -13 -13 -13 -13 -13 -13 -13 -12 -11 -11 -10 -10 -9 -9
-13 -13 -13 -13 -14 -14 -13 -13 -14 -14 -14 -14 -14 -14 -14 -13 -14 -14 -13 -12 -11 -11 -11 -11 -10 -9 -9
-13 -14 -13 -13 -14 -14 -14 -14 -14 -14 -14 -14 -14 -14 -14 -14 -14 -13 -13 -12 -12 -11 -11 -11 -11 -10 -9
-13 -14 -14 -14 -14 -14 -14 -14 -15 -15 -14 -14 -14 -14 -14 -14 -14 -13 -13 -12 -12 -12 -12 -11 -11 -11 -10
Height
2993 2992 2990 2984 2984 2981 2978 2977 2976 2975 2974 2972 2971 2970 2969 2968 2967 2966 2965 2965 2965 2966 2965 2966 2966 2968 2968
2978 2975 2972 2971 2969 2965 2964 2961 2961 2962 2961 2961 2959 2958 2958 2957 2956 2955 2955 2955 2955 2955 2955 2955 2956 2957 2958
2963 2960 2956 2954 2950 2948 2947 2949 2947 2947 2947 2947 2947 2947 2946 2946 2945 2945 2944 2944 2945 2944 2944 2944 2945 2945 2946
2948 2944 2941 2939 2936 2932 2932 2932 2932 2933 2931 2934 2934 2934 2934 2934 2934 2934 2934 2934 2934 2934 2934 2934 2935 2935 2936
2932 2928 2926 2924 2920 2920 2914 2917 2916 2917 2919 2920 2921 2922 2922 2923 2923 2924 2924 2924 2924 2924 2924 2924 2925 2926 2927
2920 2915 2912 2910 2908 2905 2902 2901 2901 2907 2905 2908 2908 2909 2911 2912 2913 2914 2914 2914 2914 2914 2914 2915 2916 2917 2918
2906 2905 2900 2900 2896 2891 2889 2889 2890 2892 2893 2894 2896 2898 2899 2900 2902 2903 2904 2905 2905 2905 2905 2906 2907 2908 2910
2896 2892 2888 2885 2880 2878 2877 2878 2878 2879 2881 2883 2886 2886 2887 2888 2891 2893 2894 2895 2895 2895 2896 2897 2899 2900 2901
2882 2878 2874 2870 2868 2865 2865 2867 2866 2867 2870 2873 2876 2875 2877 2878 2880 2884 2884 2885 2886 2887 2887 2889 2890 2892 2893
2869 2864 2861 2858 2856 2855 2855 2856 2858 2858 2861 2864 2865 2865 2866 2868 2870 2873 2874 2876 2877 2878 2879 2881 2882 2884 2887
2855 2851 2849 2847 2846 2844 2845 2847 2848 2849 2852 2854 2855 2856 2857 2859 2862 2864 2866 2867 2868 2870 2872 2874 2875 2878 2881
2845 2842 2840 2838 2836 2836 2836 2839 2841 2843 2845 2846 2847 2848 2850 2852 2854 2856 2857 2859 2861 2863 2865 2867 2869 2872 2874
2836 2833 2832 2830 2828 2828 2829 2832 2835 2837 2837 2838 2840 2841 2843 2845 2847 2848 2850 2851 2854 2856 2859 2861 2863 2866 2868
2828 2825 2824 2824 2824 2824 2824 2826 2828 2829 2831 2832 2833 2835 2837 2838 2839 2842 2843 2845 2848 2850 2852 2855 2857 2860 2862
2820 2818 2818 2818 2818 2819 2819 2820 2821 2823 2825 2827 2828 2829 2831 2832 2834 2836 2838 2840 2842 2843 2846 2849 2851 2853 2856
2813 2812 2812 2812 2813 2814 2814 2814 2816 2818 2820 2822 2823 2824 2826 2828 2830 2831 2833 2835 2836 2838 2840 2843 2845 2847 2849
2807 2806 2806 2807 2808 2810 2810 2811 2812 2814 2815 2816 2818 2819 2821 2824 2826 2827 2829 2830 2831 2833 2835 2838 2840 2841 2843
Wind_Speed
49 48 48 51 49 50 52 50 48 47 44 43 44 44 42 41 40 39 37 36 36 35 35 36 36 33 33
54 55 55 55 55 56 54 54 52 49 47 43 45 44 42 40 39 38 37 36 35 35 34 36 35 34 35
58 59 60 59 60 61 58 53 53 51 49 46 44 43 42 41 38 36 36 35 35 35 35 35 34 34 33
62 62 61 59 58 60 59 54 51 49 50 47 44 42 41 40 38 36 35 35 35 35 34 33 31 31 31
60 60 59 55 54 51 54 51 47 49 49 46 44 42 40 39 36 35 34 34 33 33 32 31 29 29 29
53 53 54 52 50 51 48 47 45 43 48 46 44 39 37 38 35 33 33 33 33 32 31 31 30 30 30
53 52 53 51 51 50 46 43 42 47 44 45 42 38 37 35 34 32 33 32 31 30 30 29 29 32 31
51 51 51 52 51 45 40 41 46 48 46 41 39 39 37 35 32 31 31 30 28 28 28 28 28 29 28
47 48 47 45 42 41 39 42 43 44 38 36 38 40 38 33 32 30 30 29 27 26 26 26 26 26 26
46 46 43 39 37 39 39 39 38 36 32 33 35 35 35 33 32 29 28 27 25 25 25 25 24 24 24
43 42 36 33 33 33 35 35 30 30 27 32 33 33 34 31 28 27 26 24 23 23 23 24 23 23 23
36 32 35 29 33 28 23 21 23 24 29 30 29 30 30 27 27 26 25 25 24 23 23 22 22 22 22
38 38 29 21 21 23 19 20 27 31 30 29 27 24 25 25 26 23 24 24 24 23 21 21 22 22 21
37 25 21 16 16 16 19 22 26 29 26 25 23 23 22 23 22 20 22 22 23 22 20 19 20 20 21
31 24 20 18 18 16 17 20 22 22 21 20 20 22 21 19 16 18 21 20 22 22 20 18 19 19 20
25 24 23 18 18 16 15 14 16 17 17 18 19 20 18 13 14 17 18 21 22 21 20 19 19 20 19
22 22 20 17 14 15 14 13 14 16 17 18 18 16 12 11 14 16 16 18 19 20 20 18 17 20 20
Wind_Direction
294 292 289 290 288 285 285 282 282 281 279 277 275 274 274 274 275 275 273 272 272 271 271 271 271 269 265
292 292 289 286 284 284 283 283 282 279 278 274 272 271 271 272 272 271 270 270 271 272 274 272 273 270 266
290 289 287 286 286 284 280 277 277 278 277 274 272 271 270 269 270 269 268 269 272 273 274 274 272 269 267
288 288 289 289 288 286 286 280 274 272 272 271 273 269 268 268 267 266 267 269 273 275 273 271 270 269 269
290 291 292 294 295 292 287 283 272 273 270 268 269 270 267 264 264 263 265 268 272 270 269 268 266 267 269
293 293 295 296 295 292 288 281 273 270 272 270 266 270 265 261 260 261 263 268 271 268 266 264 263 265 267
290 290 289 291 290 287 281 276 268 275 268 267 268 265 266 259 259 261 264 268 268 265 264 262 259 262 262
286 287 289 289 284 279 275 277 271 277 264 266 269 263 262 258 256 260 265 267 266 262 260 258 259 260 257
288 289 289 285 278 277 265 271 272 277 261 269 271 264 261 254 254 259 265 266 263 260 259 257 256 256 252
292 292 293 281 271 267 265 267 271 264 262 269 270 267 258 253 253 257 264 263 259 257 256 255 253 250 245
298 297 289 281 278 273 266 262 264 264 269 268 269 267 261 257 252 260 260 258 254 255 254 250 248 245 242
301 296 300 280 280 272 259 262 268 279 272 271 270 265 260 251 258 258 253 251 253 252 253 248 245 242 240
289 294 284 282 274 264 258 261 265 266 269 273 273 261 249 255 258 246 247 250 249 251 252 246 243 240 239
299 287 271 266 270 264 262 251 254 261 266 265 257 250 257 259 248 241 245 246 252 256 254 246 242 239 238
295 277 268 255 263 271 269 258 254 257 254 248 249 260 260 246 241 241 244 246 252 256 256 251 250 248 246
287 268 271 260 255 273 276 259 248 246 246 252 259 255 244 236 242 244 246 245 250 254 258 252 253 255 254
287 275 264 249 250 266 274 257 245 251 257 261 254 245 224 243 244 247 250 249 250 254 256 252 248 252 255